Change the Weather History Date:

Thursday, March 7, 2013

  Actual Average Record
Temperature  
Mean Temperature 42 °F 30 °F  
Max Temperature 53 °F 40 °F 62 °F (1968)
Min Temperature 30 °F 19 °F -22 °F (1943)
Degree Days  
Heating Degree Days 23 35  
Month to date heating degree days 240 253  
Since 1 July heating degree days 5782 6088  
Cooling Degree Days 0 0  
Month to date cooling degree days 0 0  
Year to date cooling degree days 0 0  
Moisture  
Dew Point 21 °F    
Average Humidity 49    
Maximum Humidity 72    
Minimum Humidity 26    
Precipitation  
Precipitation 0.00 in 0.02 in 0.17 in (1975)
Month to date precipitation T 0.14  
Year to date precipitation 0.93 1.00  
Sea Level Pressure  
Sea Level Pressure 29.91 in    
Wind  
Wind Speed 8 mph (SW)    
Max Wind Speed 17 mph    
Max Gust Speed 23 mph    
Visibility 10 miles    
Events      
T = Trace of Precipitation, MM = Missing Value Source: NWS Daily Summary

Daily Weather History Graph

Daily Weather History Graph

Search for Another Location

Airport or City:

Trip Planner

Search our weather history database for the weather conditions in past years. The results will help you decide how hot, cold, wet, or windy it might be!

Date:

Astronomy

Mar. 07, 2013 Rise Set
Actual Time 6:20 AM MST 5:51 PM MST
Civil Twilight 5:51 AM MST 6:19 PM MST
Nautical Twilight 5:18 AM MST 6:53 PM MST
Astronomical Twilight 4:44 AM MST 7:26 PM MST
Moon 3:28 AM MST (3/7) 1:35 PM MST (3/7)
Length of Visible Light 12h 28m
Length of Day
11h 30m
Waning Crescent, 19% of the Moon is Illuminated
Mar 7
Waning Crescent
Mar 11
New
Mar 19
First Quarter
Mar 27
Full
Apr 2
Last Quarter

Hourly Weather History & Observations

Time (MST) Temp. Windchill Dew Point Humidity Pressure Visibility Wind Dir Wind Speed Gust Speed Precip Events Conditions
12:53 AM 33.1 °F 27.7 °F 19.0 °F 56% 29.75 in 10.0 mi SSW 5.8 mph - N/A   Clear
1:53 AM 37.0 °F 29.8 °F 19.0 °F 48% 29.75 in 10.0 mi WSW 10.4 mph 17.3 mph N/A   Clear
2:53 AM 39.9 °F 34.5 °F 19.0 °F 43% 29.74 in 10.0 mi West 8.1 mph - N/A   Clear
3:53 AM 39.0 °F 35.7 °F 18.0 °F 43% 29.78 in 10.0 mi WSW 4.6 mph - N/A   Clear
4:53 AM 39.0 °F - 18.0 °F 43% 29.82 in 10.0 mi Calm Calm - N/A   Clear
5:53 AM 33.1 °F 30.0 °F 18.0 °F 54% 29.86 in 10.0 mi WSW 3.5 mph - N/A   Clear
6:53 AM 36.0 °F 32.1 °F 19.0 °F 50% 29.90 in 10.0 mi WSW 4.6 mph - N/A   Clear
7:53 AM 39.0 °F 34.8 °F 19.9 °F 46% 29.90 in 10.0 mi SW 5.8 mph - N/A   Clear
8:53 AM 45.0 °F 38.2 °F 21.9 °F 40% 29.89 in 10.0 mi West 15.0 mph 20.7 mph N/A   Clear
9:53 AM 46.9 °F - 23.0 °F 39% 29.89 in 10.0 mi WSW 8.1 mph 17.3 mph N/A   Clear
10:53 AM 50.0 °F - 23.0 °F 35% 29.89 in 10.0 mi SSW 8.1 mph - N/A   Clear
11:53 AM 50.0 °F - 24.1 °F 36% 29.91 in 10.0 mi WSW 11.5 mph - N/A   Clear
12:53 PM 50.0 °F - 25.0 °F 38% 29.92 in 10.0 mi SSW 8.1 mph - N/A   Clear
1:53 PM 52.0 °F - 21.0 °F 30% 29.88 in 10.0 mi Variable 6.9 mph - N/A   Partly Cloudy
2:53 PM 52.0 °F - 17.1 °F 25% 29.88 in 10.0 mi WSW 6.9 mph - N/A   Overcast
3:53 PM 48.0 °F - 21.9 °F 36% 29.90 in 10.0 mi East 9.2 mph - N/A   Clear
4:53 PM 42.1 °F 37.1 °F 19.9 °F 41% 29.96 in 10.0 mi East 8.1 mph - N/A   Mostly Cloudy
5:53 PM 37.9 °F 32.1 °F 19.0 °F 47% 30.02 in 10.0 mi ENE 8.1 mph - N/A   Scattered Clouds
6:53 PM 34.0 °F 27.2 °F 18.0 °F 52% 30.05 in 10.0 mi NE 8.1 mph - N/A   Clear
7:53 PM 33.1 °F 24.4 °F 19.0 °F 56% 30.05 in 10.0 mi ENE 11.5 mph - N/A   Clear
8:53 PM 32.0 °F 23.6 °F 21.9 °F 66% 30.06 in 10.0 mi ENE 10.4 mph - N/A   Overcast
9:53 PM 30.9 °F 22.2 °F 23.0 °F 72% 30.06 in 10.0 mi NE 10.4 mph - N/A   Overcast
10:53 PM 30.9 °F 24.3 °F 23.0 °F 72% 30.04 in 10.0 mi NE 6.9 mph - N/A   Overcast
11:53 PM 30.0 °F 24.1 °F 23.0 °F 75% 30.04 in 10.0 mi ENE 5.8 mph - N/A   Overcast